| time (UTC) | temp F | wind direction | speed MPH | gust MPH | rain 1hr in | rain 24hr in | rain mn in | humidity % | barometer mb |
| 20260509230117 | 87 | 22 | 1.0 | 6.0 | 0.00 | 0.00 | 0.00 | 67 | 1007.4 |
| 20260509225600 | 87 | 28 | 1.0 | 3.0 | 0.00 | 0.00 | 0.00 | 68 | 1007.3 |
| 20260509225111 | 88 | 27 | 2.0 | 4.0 | 0.00 | 0.00 | 0.00 | 67 | 1007.3 |
| 20260509224527 | 88 | 26 | 2.0 | 4.0 | 0.00 | 0.00 | 0.00 | 66 | 1007.1 |
| 20260509224040 | 88 | 27 | 3.0 | 6.0 | 0.00 | 0.00 | 0.00 | 66 | 1007.1 |
| 20260509223040 | 89 | 9 | 3.0 | 5.0 | 0.00 | 0.00 | 0.00 | 64 | 1006.9 |
| 20260509222550 | 89 | 333 | 3.0 | 5.0 | 0.00 | 0.00 | 0.00 | 64 | 1006.9 |
| 20260509222053 | 89 | 313 | 3.0 | 5.0 | 0.00 | 0.00 | 0.00 | 62 | 1006.8 |
| 20260509221523 | 89 | 315 | 3.0 | 8.0 | 0.00 | 0.00 | 0.00 | 61 | 1006.7 |
| 20260509221024 | 89 | 319 | 5.0 | 8.0 | 0.00 | 0.00 | 0.00 | 62 | 1006.6 |
| 20260509220050 | 89 | 61 | 3.0 | 6.0 | 0.00 | 0.00 | 0.00 | 64 | 1006.5 |
| 20260509215555 | 89 | 65 | 4.0 | 6.0 | 0.00 | 0.00 | 0.00 | 64 | 1006.6 |
| 20260509214616 | 90 | 22 | 4.0 | 6.0 | 0.00 | 0.00 | 0.00 | 64 | 1006.9 |
| 20260509214027 | 90 | 26 | 4.0 | 13.0 | 0.00 | 0.00 | 0.00 | 63 | 1006.9 |
| 20260509213531 | 90 | 68 | 6.0 | 13.0 | 0.00 | 0.00 | 0.00 | 62 | 1006.9 |
| 20260509213138 | 89 | 337 | 3.0 | 11.0 | 0.00 | 0.00 | 0.00 | 62 | 1006.9 |
| 20260509212630 | 89 | 283 | 2.0 | 8.0 | 0.00 | 0.00 | 0.00 | 61 | 1007.1 |
| 20260509212111 | 89 | 284 | 5.0 | 8.0 | 0.00 | 0.00 | 0.00 | 60 | 1007.3 |
| 20260509211537 | 89 | 258 | 3.0 | 8.0 | 0.00 | 0.00 | 0.00 | 61 | 1007.3 |
| 20260509211040 | 89 | 310 | 3.0 | 8.0 | 0.00 | 0.00 | 0.00 | 61 | 1007.4 |
| 20260509210108 | 88 | 265 | 5.0 | 9.0 | 0.00 | 0.00 | 0.00 | 61 | 1007.4 |
| 20260509205552 | 88 | 258 | 6.0 | 8.0 | 0.00 | 0.00 | 0.00 | 61 | 1007.4 |
| 20260509205103 | 88 | 333 | 3.0 | 9.0 | 0.00 | 0.00 | 0.00 | 61 | 1007.3 |
| 20260509204521 | 88 | 325 | 4.0 | 11.0 | 0.00 | 0.00 | 0.00 | 62 | 1007.4 |
| 20260509204036 | 88 | 287 | 4.0 | 11.0 | 0.00 | 0.00 | 0.00 | 62 | 1007.5 |
| 20260509203100 | 88 | 288 | 4.0 | 9.0 | 0.00 | 0.00 | 0.00 | 63 | 1007.7 |
| 20260509202548 | 88 | 355 | 5.0 | 11.0 | 0.00 | 0.00 | 0.00 | 62 | 1007.8 |
| 20260509201546 | 87 | 319 | 7.0 | 11.0 | 0.00 | 0.00 | 0.00 | 68 | 1008.0 |
| 20260509201031 | 87 | 180 | 2.0 | 8.0 | 0.00 | 0.00 | 0.00 | 68 | 1007.9 |
| 20260509200030 | 87 | 272 | 4.0 | 7.0 | 0.00 | 0.00 | 0.00 | 67 | 1008.0 |
| 20260509195543 | 87 | 334 | 4.0 | 6.0 | 0.00 | 0.00 | 0.00 | 68 | 1008.1 |
| 20260509194608 | 86 | 20 | 2.0 | 8.0 | 0.00 | 0.00 | 0.00 | 69 | 1008.1 |
| 20260509194118 | 87 | 5 | 3.0 | 8.0 | 0.00 | 0.00 | 0.00 | 68 | 1008.1 |
| 20260509193521 | 87 | 320 | 3.0 | 5.0 | 0.00 | 0.00 | 0.00 | 69 | 1008.2 |
| 20260509193034 | 86 | 355 | 3.0 | 8.0 | 0.00 | 0.00 | 0.00 | 71 | 1008.3 |
| 20260509192539 | 86 | 252 | 4.0 | 8.0 | 0.00 | 0.00 | 0.00 | 69 | 1008.4 |
| 20260509191540 | 86 | 9 | 3.0 | 8.0 | 0.00 | 0.00 | 0.00 | 72 | 1008.4 |
| 20260509191111 | 86 | 254 | 4.0 | 8.0 | 0.00 | 0.00 | 0.00 | 71 | 1008.5 |
| 20260509190613 | 85 | 262 | 3.0 | 8.0 | 0.00 | 0.00 | 0.00 | 75 | 1008.7 |
| 20260509190044 | 85 | 319 | 5.0 | 8.0 | 0.00 | 0.00 | 0.00 | 73 | 1008.8 |
| 20260509185547 | 84 | 302 | 3.0 | 5.0 | 0.00 | 0.00 | 0.00 | 74 | 1008.9 |
| 20260509185053 | 84 | 311 | 0.0 | 6.0 | 0.00 | 0.00 | 0.00 | 76 | 1008.9 |
| 20260509184521 | 84 | 311 | 5.0 | 6.0 | 0.00 | 0.00 | 0.00 | 74 | 1008.9 |
| 20260509184026 | 84 | 317 | 2.0 | 8.0 | 0.00 | 0.00 | 0.00 | 76 | 1009.0 |
| 20260509183048 | 84 | 278 | 4.0 | 7.0 | 0.00 | 0.00 | 0.00 | 76 | 1009.1 |
| 20260509182558 | 84 | 257 | 2.0 | 7.0 | 0.00 | 0.00 | 0.00 | 76 | 1009.1 |
| 20260509181557 | 84 | 360 | 3.0 | 5.0 | 0.00 | 0.00 | 0.00 | 77 | 1009.3 |
| 20260509181042 | 83 | 26 | 2.0 | 6.0 | 0.00 | 0.00 | 0.00 | 80 | 1009.4 |
| 20260509180106 | 83 | 351 | 1.0 | 6.0 | 0.00 | 0.00 | 0.00 | 81 | 1009.6 |
| 20260509175608 | 83 | 319 | 5.0 | 6.0 | 0.00 | 0.00 | 0.00 | 80 | 1009.7 |
| 20260509175114 | 82 | 64 | 2.0 | 6.0 | 0.00 | 0.00 | 0.00 | 80 | 1009.7 |
| 20260509174526 | 82 | 315 | 3.0 | 9.0 | 0.00 | 0.00 | 0.00 | 80 | 1009.8 |
| 20260509174029 | 82 | 320 | 6.0 | 9.0 | 0.00 | 0.00 | 0.00 | 80 | 1009.8 |
| 20260509173640 | 82 | 295 | 4.0 | 9.0 | 0.00 | 0.00 | 0.00 | 81 | 1009.8 |
| 20260509173046 | 83 | 223 | 3.0 | 8.0 | 0.00 | 0.00 | 0.00 | 80 | 1009.9 |
| 20260509172531 | 82 | 247 | 3.0 | 8.0 | 0.00 | 0.00 | 0.00 | 80 | 1009.9 |
| 20260509171552 | 82 | 241 | 4.0 | 7.0 | 0.00 | 0.00 | 0.00 | 79 | 1009.9 |
| 20260509171109 | 82 | 205 | 4.0 | 6.0 | 0.00 | 0.00 | 0.00 | 80 | 1009.9 |
| 20260509170108 | 81 | 237 | 2.0 | 7.0 | 0.00 | 0.00 | 0.00 | 82 | 1009.9 |
| 20260509165558 | 81 | 238 | 2.0 | 7.0 | 0.00 | 0.00 | 0.00 | 82 | 1010.0 |
| 20260509164559 | 81 | 226 | 2.0 | 7.0 | 0.00 | 0.00 | 0.00 | 84 | 1009.8 |
| 20260509164059 | 80 | 229 | 0.0 | 5.0 | 0.00 | 0.00 | 0.00 | 84 | 1009.9 |
| 20260509163609 | 80 | 229 | 3.0 | 5.0 | 0.00 | 0.00 | 0.00 | 84 | 1010.0 |
| 20260509162528 | 80 | 248 | 1.0 | 7.0 | 0.00 | 0.00 | 0.00 | 85 | 1010.0 |
| 20260509161554 | 80 | 253 | 5.0 | 8.0 | 0.00 | 0.00 | 0.00 | 85 | 1010.0 |
| 20260509161045 | 80 | 261 | 4.0 | 8.0 | 0.00 | 0.00 | 0.00 | 85 | 1010.0 |
| 20260509160106 | 79 | 226 | 5.0 | 9.0 | 0.00 | 0.00 | 0.00 | 86 | 1009.8 |
| 20260509155618 | 79 | 161 | 5.0 | 8.0 | 0.00 | 0.00 | 0.00 | 88 | 1009.6 |
| 20260509155057 | 79 | 214 | 6.0 | 11.0 | 0.00 | 0.00 | 0.00 | 88 | 1009.6 |
| 20260509154528 | 78 | 181 | 8.0 | 14.0 | 0.00 | 0.00 | 0.00 | 89 | 1009.5 |
| 20260509154041 | 78 | 209 | 10.0 | 14.0 | 0.00 | 0.00 | 0.00 | 89 | 1009.2 |
| 20260509153040 | 77 | 200 | 8.0 | 10.0 | 0.00 | 0.00 | 0.00 | 92 | 1009.4 |
| 20260509152548 | 77 | 215 | 7.0 | 11.0 | 0.00 | 0.00 | 0.00 | 92 | 1009.5 |
| 20260509152053 | 76 | 200 | 8.0 | 11.0 | 0.00 | 0.00 | 0.00 | 93 | 1009.5 |
| 20260509151522 | 76 | 186 | 9.0 | 11.0 | 0.00 | 0.00 | 0.00 | 93 | 1009.4 |
| 20260509151026 | 76 | 194 | 7.0 | 10.0 | 0.00 | 0.00 | 0.00 | 94 | 1009.5 |
| 20260509150042 | 76 | 204 | 5.0 | 10.0 | 0.00 | 0.00 | 0.00 | 94 | 1009.7 |
| 20260509145553 | 75 | 238 | 8.0 | 10.0 | 0.00 | 0.00 | 0.00 | 94 | 1009.6 |
| 20260509144613 | 75 | 213 | 4.0 | 6.0 | 0.00 | 0.00 | 0.00 | 94 | 1009.6 |
| 20260509144104 | 75 | 222 | 3.0 | 4.0 | 0.00 | 0.00 | 0.00 | 95 | 1009.7 |
| 20260509143608 | 75 | 188 | 3.0 | 7.0 | 0.00 | 0.00 | 0.00 | 95 | 1009.7 |
| 20260509143039 | 75 | 225 | 4.0 | 7.0 | 0.00 | 0.00 | 0.00 | 94 | 1009.6 |
| 20260509142551 | 75 | 204 | 4.0 | 7.0 | 0.00 | 0.00 | 0.00 | 95 | 1009.6 |
| 20260509141610 | 75 | 211 | 0.0 | 5.0 | 0.00 | 0.00 | 0.00 | 95 | 1009.6 |
| 20260509141114 | 75 | 211 | 3.0 | 5.0 | 0.00 | 0.00 | 0.00 | 95 | 1009.7 |
| 20260509140119 | 75 | 182 | 4.0 | 6.0 | 0.00 | 0.00 | 0.00 | 95 | 1009.7 |
| 20260509135621 | 75 | 136 | 2.0 | 6.0 | 0.00 | 0.00 | 0.00 | 95 | 1009.5 |
| 20260509134622 | 74 | 178 | 2.0 | 4.0 | 0.00 | 0.00 | 0.00 | 95 | 1009.6 |
| 20260509134112 | 74 | 177 | 1.0 | 4.0 | 0.00 | 0.00 | 0.00 | 95 | 1009.8 |
| 20260509133623 | 74 | 171 | 3.0 | 5.0 | 0.00 | 0.00 | 0.00 | 95 | 1009.6 |
| 20260509133024 | 74 | 144 | 2.0 | 5.0 | 0.00 | 0.00 | 0.00 | 95 | 1009.6 |
| 20260509132537 | 74 | 128 | 2.0 | 5.0 | 0.00 | 0.00 | 0.00 | 95 | 1009.8 |
| 20260509131558 | 74 | 167 | 1.0 | 5.0 | 0.00 | 0.00 | 0.00 | 94 | 1009.8 |
| 20260509131110 | 74 | 167 | 2.0 | 5.0 | 0.00 | 0.00 | 0.00 | 94 | 1009.8 |
| 20260509130614 | 74 | 167 | 0.0 | 3.0 | 0.00 | 0.00 | 0.00 | 94 | 1009.6 |
| 20260509130042 | 74 | 163 | 0.0 | 0.0 | 0.00 | 0.00 | 0.00 | 94 | 1009.7 |
| 20260509125545 | 74 | 163 | 0.0 | 0.0 | 0.00 | 0.00 | 0.00 | 94 | 1009.6 |
| 20260509124619 | 74 | 145 | 0.0 | 0.0 | 0.00 | 0.00 | 0.00 | 94 | 1009.8 |
| 20260509124104 | 74 | 145 | 0.0 | 0.0 | 0.00 | 0.00 | 0.00 | 94 | 1009.8 |
| 20260509123614 | 74 | 145 | 0.0 | 0.0 | 0.00 | 0.00 | 0.00 | 94 | 1009.7 |
| 20260509123043 | 74 | 145 | 0.0 | 0.0 | 0.00 | 0.00 | 0.00 | 94 | 1009.6 |
| 20260509122548 | 74 | 145 | 0.0 | 0.0 | 0.00 | 0.00 | 0.00 | 94 | 1009.5 |
| 20260509121610 | 74 | 145 | 0.0 | 0.0 | 0.00 | 0.00 | 0.00 | 94 | 1009.2 |
| 20260509121026 | 74 | 145 | 0.0 | 0.0 | 0.00 | 0.00 | 0.00 | 94 | 1009.0 |
| 20260509120536 | 74 | 145 | 0.0 | 2.0 | 0.00 | 0.00 | 0.00 | 94 | 1009.1 |
| 20260509120137 | 74 | 145 | 0.0 | 3.0 | 0.00 | 0.00 | 0.00 | 94 | 1009.1 |
| 20260509115531 | 74 | 145 | 2.0 | 3.0 | 0.00 | 0.09 | 0.00 | 94 | 1009.2 |
| 20260509114554 | 74 | 145 | 0.0 | 1.0 | 0.00 | 0.09 | 0.00 | 94 | 1009.6 |
| 20260509114105 | 74 | 145 | 0.0 | 2.0 | 0.00 | 0.09 | 0.00 | 94 | 1009.7 |
| 20260509113609 | 74 | 145 | 0.0 | 2.0 | 0.00 | 0.09 | 0.00 | 94 | 1009.7 |
| 20260509113037 | 74 | 145 | 1.0 | 4.0 | 0.00 | 0.09 | 0.00 | 94 | 1009.9 |
| 20260509112541 | 74 | 145 | 2.0 | 5.0 | 0.00 | 0.09 | 0.00 | 94 | 1009.9 |
| 20260509111553 | 74 | 142 | 2.0 | 4.0 | 0.00 | 0.09 | 0.00 | 94 | 1009.9 |
| 20260509111036 | 74 | 144 | 0.0 | 0.0 | 0.00 | 0.09 | 0.00 | 94 | 1009.9 |
| 20260509105607 | 74 | 144 | 0.0 | 0.0 | 0.00 | 0.09 | 0.00 | 94 | 1009.7 |
| 20260509105118 | 74 | 144 | 0.0 | 0.0 | 0.00 | 0.09 | 0.00 | 94 | 1009.7 |
| 20260509104537 | 74 | 144 | 0.0 | 0.0 | 0.00 | 0.09 | 0.00 | 94 | 1009.6 |
| 20260509104025 | 74 | 144 | 0.0 | 0.0 | 0.00 | 0.09 | 0.00 | 94 | 1009.2 |
| 20260509103126 | 74 | 144 | 0.0 | 0.0 | 0.00 | 0.09 | 0.00 | 94 | 1009.4 |
| 20260509102618 | 74 | 144 | 0.0 | 0.0 | 0.00 | 0.09 | 0.00 | 94 | 1009.5 |
| 20260509102021 | 74 | 144 | 0.0 | 0.0 | 0.00 | 0.09 | 0.00 | 94 | 1009.5 |
| 20260509101109 | 74 | 143 | 0.0 | 0.0 | 0.00 | 0.09 | 0.00 | 94 | 1009.7 |
| 20260509100620 | 74 | 143 | 0.0 | 0.0 | 0.00 | 0.09 | 0.00 | 94 | 1009.7 |
| 20260509100042 | 74 | 143 | 0.0 | 0.0 | 0.00 | 0.09 | 0.00 | 94 | 1009.6 |
| 20260509095531 | 74 | 146 | 0.0 | 0.0 | 0.00 | 0.09 | 0.00 | 94 | 1009.4 |
| 20260509094553 | 74 | 150 | 0.0 | 0.0 | 0.00 | 0.09 | 0.00 | 94 | 1009.0 |
| 20260509094102 | 74 | 154 | 0.0 | 2.0 | 0.00 | 0.09 | 0.00 | 94 | 1008.9 |
| 20260509093604 | 74 | 155 | 0.0 | 2.0 | 0.00 | 0.09 | 0.00 | 94 | 1008.8 |
| 20260509093035 | 74 | 155 | 0.0 | 3.0 | 0.00 | 0.09 | 0.00 | 94 | 1008.8 |
| 20260509092546 | 74 | 155 | 1.0 | 5.0 | 0.00 | 0.09 | 0.00 | 94 | 1008.8 |
| 20260509091542 | 74 | 155 | 3.0 | 6.0 | 0.00 | 0.09 | 0.00 | 94 | 1008.9 |
| 20260509091053 | 74 | 150 | 4.0 | 6.0 | 0.00 | 0.09 | 0.00 | 94 | 1008.7 |
| 20260509090113 | 74 | 150 | 0.0 | 2.0 | 0.00 | 0.09 | 0.00 | 94 | 1009.0 |
| 20260509085522 | 74 | 150 | 0.0 | 3.0 | 0.00 | 0.09 | 0.00 | 94 | 1009.0 |
| 20260509085127 | 74 | 150 | 2.0 | 8.0 | 0.00 | 0.09 | 0.00 | 94 | 1008.9 |
| 20260509084531 | 74 | 148 | 4.0 | 8.0 | 0.00 | 0.09 | 0.00 | 94 | 1008.9 |
| 20260509084047 | 74 | 148 | 5.0 | 8.0 | 0.00 | 0.09 | 0.00 | 94 | 1009.1 |
| 20260509083049 | 74 | 173 | 4.0 | 6.0 | 0.00 | 0.09 | 0.00 | 93 | 1009.3 |
| 20260509082554 | 74 | 189 | 4.0 | 6.0 | 0.00 | 0.09 | 0.00 | 93 | 1009.4 |
| 20260509082106 | 74 | 196 | 0.0 | 4.0 | 0.00 | 0.09 | 0.00 | 93 | 1009.6 |
| 20260509081523 | 74 | 150 | 0.0 | 0.0 | 0.00 | 0.09 | 0.00 | 93 | 1009.8 |
| 20260509081035 | 74 | 150 | 0.0 | 0.0 | 0.00 | 0.09 | 0.00 | 93 | 1009.9 |
| 20260509080053 | 74 | 150 | 0.0 | 2.0 | 0.00 | 0.09 | 0.00 | 93 | 1009.7 |
| 20260509075605 | 74 | 150 | 0.0 | 0.0 | 0.00 | 0.09 | 0.00 | 93 | 1009.7 |
| 20260509074606 | 74 | 150 | 0.0 | 0.0 | 0.00 | 0.09 | 0.00 | 93 | 1009.5 |
| 20260509074117 | 74 | 150 | 0.0 | 1.0 | 0.00 | 0.09 | 0.00 | 93 | 1009.5 |
| 20260509073620 | 74 | 150 | 0.0 | 3.0 | 0.00 | 0.09 | 0.00 | 93 | 1009.4 |
| 20260509073047 | 74 | 150 | 1.0 | 5.0 | 0.00 | 0.09 | 0.00 | 93 | 1009.5 |
| 20260509072551 | 74 | 150 | 2.0 | 5.0 | 0.00 | 0.09 | 0.00 | 93 | 1009.5 |
| 20260509071611 | 74 | 150 | 3.0 | 7.0 | 0.00 | 0.09 | 0.00 | 93 | 1009.5 |
| 20260509071027 | 74 | 148 | 3.0 | 7.0 | 0.00 | 0.09 | 0.00 | 93 | 1009.5 |
| 20260509070027 | 74 | 163 | 5.0 | 9.0 | 0.00 | 0.09 | 0.00 | 93 | 1009.3 |
| 20260509065541 | 74 | 159 | 4.0 | 9.0 | 0.00 | 0.09 | 0.00 | 93 | 1009.1 |
| 20260509065024 | 74 | 144 | 6.0 | 8.0 | 0.00 | 0.09 | 0.00 | 93 | 1009.1 |
| 20260509064545 | 74 | 163 | 4.0 | 8.0 | 0.00 | 0.09 | 0.00 | 93 | 1009.2 |
| 20260509064028 | 74 | 149 | 4.0 | 7.0 | 0.00 | 0.09 | 0.00 | 92 | 1009.2 |
| 20260509063545 | 74 | 159 | 5.0 | 7.0 | 0.00 | 0.09 | 0.00 | 92 | 1009.1 |
| 20260509063044 | 74 | 150 | 4.0 | 7.0 | 0.00 | 0.09 | 0.00 | 92 | 1009.2 |
| 20260509062524 | 74 | 155 | 4.0 | 8.0 | 0.00 | 0.09 | 0.00 | 92 | 1009.1 |
| 20260509062032 | 74 | 144 | 5.0 | 10.0 | 0.00 | 0.09 | 0.00 | 92 | 1009.1 |
| 20260509061531 | 74 | 150 | 6.0 | 10.0 | 0.00 | 0.09 | 0.00 | 92 | 1009.0 |
| 20260509061041 | 74 | 139 | 4.0 | 11.0 | 0.00 | 0.09 | 0.00 | 92 | 1009.1 |
| 20260509060525 | 74 | 146 | 8.0 | 11.0 | 0.00 | 0.09 | 0.00 | 92 | 1009.2 |
| 20260509060022 | 74 | 161 | 7.0 | 13.0 | 0.00 | 0.09 | 0.00 | 92 | 1009.2 |
| 20260509055532 | 74 | 148 | 11.0 | 13.0 | 0.00 | 0.09 | 0.00 | 92 | 1009.4 |
| 20260509055022 | 74 | 144 | 8.0 | 12.0 | 0.00 | 0.09 | 0.00 | 92 | 1009.4 |
| 20260509054534 | 74 | 161 | 8.0 | 12.0 | 0.00 | 0.09 | 0.00 | 92 | 1009.5 |
| 20260509054025 | 74 | 153 | 7.0 | 10.0 | 0.00 | 0.09 | 0.00 | 92 | 1009.4 |
| 20260509053553 | 74 | 153 | 7.0 | 12.0 | 0.00 | 0.09 | 0.00 | 92 | 1009.4 |
| 20260509053033 | 74 | 144 | 8.0 | 13.0 | 0.00 | 0.09 | 0.00 | 92 | 1009.4 |
| 20260509052522 | 74 | 143 | 9.0 | 14.0 | 0.00 | 0.09 | 0.00 | 92 | 1009.3 |
| 20260509052037 | 74 | 155 | 10.0 | 14.0 | 0.00 | 0.09 | 0.00 | 92 | 1009.2 |
| 20260509051524 | 74 | 136 | 11.0 | 14.0 | 0.00 | 0.09 | 0.00 | 92 | 1009.1 |
| 20260509051053 | 74 | 148 | 7.0 | 12.0 | 0.00 | 0.09 | 0.00 | 92 | 1009.1 |
| 20260509050526 | 74 | 171 | 8.0 | 14.0 | 0.00 | 0.09 | 0.00 | 92 | 1009.0 |
| 20260509050041 | 74 | 161 | 8.0 | 14.0 | 0.00 | 0.09 | 0.09 | 92 | 1009.0 |
| 20260509045543 | 74 | 163 | 11.0 | 14.0 | 0.00 | 0.09 | 0.09 | 92 | 1009.0 |
| 20260509044611 | 74 | 144 | 5.0 | 11.0 | 0.00 | 0.09 | 0.09 | 92 | 1009.1 |
| 20260509044114 | 74 | 147 | 6.0 | 12.0 | 0.00 | 0.09 | 0.09 | 91 | 1009.1 |
| 20260509043525 | 74 | 134 | 7.0 | 14.0 | 0.00 | 0.09 | 0.09 | 91 | 1009.0 |
| 20260509042631 | 74 | 142 | 9.0 | 14.0 | 0.00 | 0.09 | 0.09 | 91 | 1009.0 |
| 20260509042112 | 74 | 148 | 9.0 | 14.0 | 0.00 | 0.09 | 0.09 | 91 | 1009.1 |
| 20260509041538 | 74 | 140 | 9.0 | 13.0 | 0.00 | 0.09 | 0.09 | 91 | 1009.2 |
| 20260509041041 | 74 | 149 | 8.0 | 12.0 | 0.00 | 0.09 | 0.09 | 91 | 1009.1 |
| 20260509040111 | 74 | 144 | 8.0 | 10.0 | 0.00 | 0.09 | 0.09 | 91 | 1009.3 |
| 20260509035553 | 74 | 139 | 5.0 | 9.0 | 0.00 | 0.09 | 0.09 | 91 | 1009.3 |
| 20260509034612 | 74 | 142 | 4.0 | 8.0 | 0.00 | 0.09 | 0.09 | 91 | 1009.1 |
| 20260509034127 | 74 | 143 | 3.0 | 8.0 | 0.00 | 0.09 | 0.09 | 91 | 1009.1 |
| 20260509033105 | 74 | 146 | 7.0 | 10.0 | 0.00 | 0.09 | 0.09 | 91 | 1009.1 |
| 20260509032616 | 74 | 149 | 7.0 | 11.0 | 0.00 | 0.09 | 0.09 | 90 | 1009.2 |
| 20260509032055 | 74 | 140 | 7.0 | 11.0 | 0.00 | 0.09 | 0.09 | 90 | 1009.2 |
| 20260509031526 | 74 | 144 | 7.0 | 10.0 | 0.00 | 0.09 | 0.09 | 90 | 1009.1 |
| 20260509031029 | 75 | 150 | 6.0 | 15.0 | 0.00 | 0.09 | 0.09 | 90 | 1009.1 |
| 20260509030058 | 75 | 142 | 6.0 | 10.0 | 0.00 | 0.09 | 0.09 | 89 | 1009.1 |
| 20260509025541 | 75 | 155 | 6.0 | 10.0 | 0.00 | 0.09 | 0.09 | 89 | 1008.9 |
| 20260509024612 | 75 | 157 | 3.0 | 7.0 | 0.00 | 0.09 | 0.09 | 89 | 1008.8 |
| 20260509024112 | 75 | 150 | 4.0 | 7.0 | 0.00 | 0.09 | 0.09 | 89 | 1008.7 |
| 20260509023558 | 75 | 150 | 4.0 | 9.0 | 0.00 | 0.09 | 0.09 | 89 | 1008.5 |
| 20260509023021 | 75 | 140 | 3.0 | 9.0 | 0.00 | 0.09 | 0.09 | 88 | 1008.3 |
| 20260509022531 | 75 | 126 | 4.0 | 7.0 | 0.00 | 0.09 | 0.09 | 88 | 1008.4 |
| 20260509021553 | 75 | 128 | 4.0 | 8.0 | 0.00 | 0.09 | 0.09 | 88 | 1008.4 |
| 20260509021105 | 75 | 139 | 4.0 | 9.0 | 0.00 | 0.09 | 0.09 | 88 | 1008.3 |
| 20260509020608 | 75 | 148 | 5.0 | 9.0 | 0.00 | 0.09 | 0.09 | 88 | 1008.3 |
| 20260509020038 | 76 | 146 | 5.0 | 8.0 | 0.00 | 0.09 | 0.09 | 88 | 1008.3 |
| 20260509015541 | 76 | 134 | 6.0 | 8.0 | 0.00 | 0.09 | 0.09 | 88 | 1008.3 |
| 20260509014542 | 76 | 143 | 6.0 | 9.0 | 0.00 | 0.09 | 0.09 | 87 | 1008.4 |
| 20260509014030 | 76 | 172 | 4.0 | 8.0 | 0.00 | 0.09 | 0.09 | 87 | 1008.5 |
| 20260509013051 | 76 | 142 | 3.0 | 8.0 | 0.00 | 0.09 | 0.09 | 86 | 1008.1 |
| 20260509012601 | 76 | 144 | 5.0 | 8.0 | 0.00 | 0.09 | 0.09 | 86 | 1008.0 |
| 20260509012106 | 77 | 138 | 5.0 | 9.0 | 0.00 | 0.09 | 0.09 | 86 | 1007.9 |
| 20260509011532 | 77 | 146 | 6.0 | 9.0 | 0.00 | 0.09 | 0.09 | 86 | 1008.0 |
| 20260509011040 | 77 | 153 | 5.0 | 8.0 | 0.00 | 0.09 | 0.09 | 86 | 1008.1 |
| 20260509010043 | 77 | 137 | 6.0 | 10.0 | 0.00 | 0.09 | 0.09 | 85 | 1008.1 |
| 20260509005554 | 77 | 134 | 3.0 | 5.0 | 0.00 | 0.09 | 0.09 | 85 | 1008.0 |
| 20260509005055 | 77 | 134 | 2.0 | 5.0 | 0.00 | 0.09 | 0.09 | 85 | 1007.9 |
| 20260509004526 | 77 | 136 | 3.0 | 5.0 | 0.00 | 0.09 | 0.09 | 85 | 1007.9 |
| 20260509004038 | 77 | 135 | 3.0 | 5.0 | 0.00 | 0.09 | 0.09 | 85 | 1008.1 |
| 20260509003057 | 77 | 128 | 2.0 | 5.0 | 0.00 | 0.09 | 0.09 | 84 | 1008.0 |
| 20260509002608 | 78 | 127 | 2.0 | 7.0 | 0.00 | 0.09 | 0.09 | 84 | 1008.0 |
| 20260509002115 | 78 | 115 | 3.0 | 7.0 | 0.00 | 0.09 | 0.09 | 84 | 1008.0 |
| 20260509001542 | 78 | 138 | 3.0 | 8.0 | 0.00 | 0.09 | 0.09 | 84 | 1008.1 |
| 20260509001046 | 78 | 144 | 3.0 | 6.0 | 0.00 | 0.09 | 0.09 | 84 | 1008.1 |
| 20260509000053 | 78 | 132 | 4.0 | 8.0 | 0.00 | 0.09 | 0.09 | 83 | 1008.1 |
| 20260508235613 | 78 | 135 | 4.0 | 7.0 | 0.00 | 0.09 | 0.09 | 83 | 1008.0 |
| 20260508235126 | 78 | 111 | 3.0 | 8.0 | 0.00 | 0.09 | 0.09 | 83 | 1007.9 |
| 20260508234023 | 78 | 125 | 4.0 | 7.0 | 0.00 | 0.09 | 0.09 | 83 | 1008.0 |
| 20260508233022 | 78 | 113 | 3.0 | 6.0 | 0.00 | 0.09 | 0.09 | 83 | 1008.1 |
| 20260508232538 | 78 | 96 | 2.0 | 8.0 | 0.00 | 0.09 | 0.09 | 83 | 1008.0 |
| 20260508231557 | 78 | 119 | 4.0 | 9.0 | 0.00 | 0.09 | 0.09 | 84 | 1008.0 |
| 20260508231110 | 78 | 79 | 5.0 | 9.0 | 0.00 | 0.09 | 0.09 | 83 | 1008.0 |